Temperature
24 23 22 22 21 21 20 20 20 19 19 19 19 19 18 18 18 18 18 18 18 18 18 18 18 18 18 18 18 18 18 18 18 18 18 18 18 18 18 18 18 18 17
25 23 22 22 21 21 20 20 20 20 19 19 19 19 19 18 18 18 18 18 18 18 18 18 18 18 18 18 18 18 18 18 18 18 19 19 19 18 18 18 18 18 18
25 24 23 22 22 21 21 20 20 20 20 19 19 19 19 18 18 18 18 18 18 18 18 18 18 17 17 17 17 17 17 18 18 18 18 19 20 19 19 18 18 17 17
25 24 23 23 22 22 21 21 21 20 20 20 19 19 19 19 18 18 18 18 18 18 18 18 17 17 17 17 17 17 17 17 18 18 18 18 18 19 19 19 18 18 17
26 25 24 23 23 22 21 21 21 21 20 20 19 19 19 19 19 18 18 18 18 18 18 18 18 17 17 17 17 17 17 17 17 17 17 17 17 18 18 19 18 18 18
26 25 24 23 22 22 21 21 21 21 20 20 20 19 19 19 19 18 18 18 18 18 18 18 18 17 17 17 17 17 17 17 17 17 17 17 18 18 18 18 18 18 18
26 25 24 23 22 22 21 21 21 21 20 20 20 20 19 19 19 19 18 18 18 18 18 17 18 17 17 17 17 17 17 17 17 17 17 17 17 17 17 18 18 18 18
26 25 24 23 23 22 21 21 21 21 21 20 20 20 20 19 19 19 18 18 18 18 18 17 17 17 17 17 17 17 17 17 17 16 16 17 17 17 17 17 17 18 18
25 25 24 23 23 22 21 21 21 21 21 20 20 20 20 19 19 18 18 18 18 17 17 17 17 17 17 17 17 17 17 16 16 16 16 16 16 16 16 16 17 17 18
25 25 24 23 23 22 21 21 21 21 21 20 20 20 19 19 19 18 18 18 17 17 17 17 17 17 17 17 17 16 16 16 16 16 16 16 16 16 16 16 16 16 17
25 24 24 23 22 22 21 21 20 20 20 20 20 20 19 19 18 18 18 18 17 17 17 17 17 17 16 16 16 16 16 16 16 16 16 16 16 16 16 16 16 16 16
24 24 23 22 22 22 21 21 20 20 20 20 20 19 19 19 18 18 18 18 17 17 17 17 17 16 16 16 16 16 16 16 16 16 16 16 16 16 16 15 15 16 16
23 23 22 22 21 21 21 20 20 20 20 19 19 19 19 19 18 18 18 17 17 17 16 16 16 16 16 16 16 16 15 15 15 15 15 15 15 15 15 15 15 15 15
23 22 22 21 21 20 20 20 20 20 20 19 19 19 19 18 18 18 18 17 17 17 17 16 16 16 16 16 16 16 15 15 15 15 15 15 15 15 15 15 15 15 15
22 22 21 21 20 20 20 19 20 19 19 19 19 18 18 18 18 18 17 17 17 17 16 16 16 16 16 16 15 15 15 15 15 15 15 15 15 15 15 15 15 15 15
22 22 21 20 20 20 19 19 19 19 19 19 19 18 18 18 18 18 17 17 17 16 16 16 16 16 16 16 15 15 15 15 15 14 14 15 15 15 15 15 14 14 14
22 21 21 20 20 19 19 19 19 19 19 18 18 18 18 18 18 17 17 17 17 16 16 16 16 16 16 16 15 15 15 14 14 14 14 14 14 14 14 14 14 14 14
22 21 21 20 20 19 19 19 18 18 18 18 18 18 18 17 17 17 17 17 16 16 16 16 16 15 15 15 15 15 14 14 14 14 14 14 14 14 14 14 14 14 14
21 21 21 20 20 19 19 18 18 18 18 18 17 17 17 17 17 17 16 16 16 16 16 15 15 15 15 15 15 14 14 14 14 14 14 13 13 14 14 13 13 13 13
21 20 20 20 19 19 18 18 18 18 18 18 17 17 17 17 17 17 16 16 16 16 15 15 15 15 15 15 14 14 14 14 14 14 14 14 14 13 13 13 13 13 13
20 20 20 19 19 19 18 18 18 18 18 17 17 17 17 17 17 16 16 16 16 15 15 15 15 14 14 14 14 14 14 13 13 13 13 13 13 13 13 13 13 12 13
19 19 19 19 18 18 18 17 17 17 17 17 17 17 17 17 16 16 16 15 15 15 15 14 14 14 14 14 14 13 13 13 13 13 13 13 13 13 13 13 13 13 12
19 18 18 18 18 17 17 17 17 17 17 17 16 16 16 16 16 15 15 15 15 15 14 14 14 14 14 13 13 13 13 13 13 12 12 13 13 12 12 12 12 12 12
18 18 18 17 17 17 17 17 17 17 17 16 16 16 16 16 15 15 15 15 15 14 14 14 14 14 13 13 13 13 13 12 12 12 12 12 12 12 12 12 12 12 11
18 17 17 17 17 17 16 16 16 16 16 16 16 16 16 15 15 15 14 14 14 14 14 14 13 13 13 13 13 13 12 12 12 12 12 12 12 12 12 12 12 11 11
17 17 17 17 17 16 16 16 16 16 16 16 16 16 16 15 15 15 14 14 14 14 14 13 13 13 13 13 13 12 12 12 12 12 12 12 12 12 12 12 11 11 11
Wind_Speed
13 12 12 11 11 10 10 10 9 8 7 6 5 4 3 3 3 2 2 2 1 1 1 1 0 1 1 1 2 2 2 2 1 2 2 2 3 2 2 2 1 2 3
13 13 13 12 12 11 11 10 10 9 8 6 4 3 3 3 3 2 2 2 1 1 2 0 1 1 1 2 1 2 1 1 1 2 2 2 4 3 3 2 2 2 2
15 15 14 14 13 12 12 10 10 10 9 8 6 4 4 3 3 3 3 2 2 2 1 1 1 1 2 1 2 2 2 2 2 2 2 2 1 1 3 3 3 3 3
15 15 15 15 14 13 12 12 11 11 9 9 7 7 5 4 4 3 2 2 2 2 2 2 2 2 1 1 3 2 2 3 2 2 2 3 3 3 2 3 3 4 4
15 15 15 14 13 13 13 12 12 11 10 9 8 7 6 5 4 3 3 3 3 3 2 2 2 2 2 1 1 1 3 2 3 2 2 2 3 4 4 3 2 3 3
14 14 14 13 13 13 13 12 12 11 11 10 9 8 7 6 5 4 4 4 3 3 3 2 2 2 1 2 2 2 2 2 3 3 3 3 3 4 4 4 4 4 3
12 13 14 14 13 13 13 13 13 12 11 11 10 9 8 7 6 5 4 4 3 3 3 2 2 2 2 2 2 2 2 2 3 4 3 3 4 4 4 5 5 5 3
11 13 13 13 13 14 14 13 13 12 11 11 9 9 8 7 5 5 4 4 3 2 3 3 3 2 2 2 2 2 2 2 3 4 4 4 4 4 4 5 5 5 5
8 10 12 13 13 13 14 13 13 12 12 11 10 9 8 7 5 5 5 4 3 3 3 3 3 3 3 2 2 2 2 2 3 4 4 4 4 4 4 5 5 6 6
8 8 9 11 12 12 12 12 12 12 11 11 10 8 8 7 6 6 5 5 4 3 4 4 3 3 3 3 3 3 2 3 3 3 4 4 4 4 4 4 5 5 6
7 7 8 9 10 11 12 12 12 11 11 10 10 9 8 8 7 6 6 6 5 4 4 4 4 4 4 3 3 4 3 3 3 4 4 4 5 5 4 4 5 5 6
6 7 8 9 9 10 11 11 11 11 10 10 9 9 9 8 8 7 7 6 6 5 5 4 4 4 4 4 4 4 3 4 4 4 4 5 4 4 5 4 5 5 5
6 7 8 8 8 8 9 10 10 10 10 10 9 9 8 8 8 7 7 6 6 5 5 5 5 5 4 4 4 4 4 4 5 5 5 5 5 5 4 5 5 5 5
7 7 7 8 7 7 8 8 9 9 9 9 9 9 8 8 7 7 7 6 6 6 6 6 6 5 5 5 5 5 5 5 5 5 5 5 4 5 5 4 4 5 5
7 7 7 7 7 7 7 8 8 8 8 8 8 8 7 7 7 6 6 6 6 6 6 6 6 6 5 4 4 5 5 5 6 5 5 5 3 3 4 5 4 4 5
7 6 6 7 7 7 7 8 8 7 7 8 8 7 7 6 6 6 6 6 6 6 6 5 5 5 4 2 2 4 5 5 5 5 5 4 4 3 4 4 5 5 5
7 7 6 6 6 7 8 8 7 7 7 7 7 7 7 6 6 6 6 6 6 6 6 6 6 5 4 3 3 4 5 5 5 5 5 5 3 2 3 4 5 5 5
7 6 6 6 6 7 7 7 7 7 7 7 6 6 6 6 5 5 5 6 5 6 6 6 6 5 4 4 4 4 6 6 5 5 5 4 4 3 4 4 4 4 4
6 5 5 5 5 6 7 8 8 7 7 6 6 6 6 5 5 5 5 5 4 5 5 5 5 5 4 4 4 5 5 5 5 5 4 4 4 2 4 5 5 4 4
5 5 5 5 6 6 7 8 8 7 7 6 6 6 6 6 5 5 4 4 4 4 4 4 5 5 5 5 5 6 5 4 4 4 4 3 2 2 3 4 4 4 4
5 6 6 5 5 6 7 7 7 6 6 5 5 5 6 6 5 4 4 4 4 3 3 4 4 4 4 5 6 6 5 4 5 4 4 1 2 2 4 5 4 4 5
6 6 5 5 5 6 6 6 5 4 4 5 5 5 5 5 4 4 4 4 4 4 4 4 4 3 3 3 4 6 7 6 5 5 4 2 1 4 5 4 3 4 5
6 6 6 5 4 4 5 5 5 4 4 4 5 5 5 4 4 4 4 4 4 4 4 3 3 3 3 3 5 7 7 7 5 4 2 2 3 4 4 4 4 4 4
6 6 6 5 4 4 4 4 4 5 5 5 4 4 5 4 4 4 4 4 4 4 3 3 3 3 3 3 2 3 4 5 5 4 3 6 7 6 4 4 4 3 3
5 5 6 6 5 5 4 4 5 5 5 4 4 5 5 5 4 4 2 3 3 2 3 3 3 3 3 1 1 3 4 4 3 4 4 3 3 3 3 3 3 3 3
5 5 6 6 5 5 5 5 5 5 5 4 4 4 4 4 4 4 3 2 1 2 1 1 2 1 1 2 2 2 2 3 3 4 5 4 4 3 3 3 3 3 3
Wind_Direction
192 188 190 189 187 185 185 185 187 178 184 186 189 187 186 187 183 165 144 169 183 175 242 277 216 250 188 175 182 191 184 206 208 232 206 193 189 197 188 212 233 205 199
192 190 191 192 191 185 184 184 185 182 189 183 188 189 181 186 177 170 162 187 183 221 207 216 233 232 188 167 178 208 227 194 201 249 244 217 190 199 194 200 213 221 205
196 191 194 194 191 188 188 187 186 185 188 183 186 178 178 193 189 191 185 186 208 217 238 213 231 235 237 195 209 228 235 227 213 255 281 274 254 223 188 206 218 221 229
199 195 195 195 194 191 187 185 185 186 186 189 194 195 199 201 194 199 185 196 202 208 210 214 219 242 243 212 232 209 253 254 243 221 268 297 323 285 248 209 207 211 224
199 198 197 195 194 189 186 183 183 185 186 192 193 202 207 203 189 192 187 212 201 207 208 208 213 231 243 227 271 260 263 258 271 269 263 263 254 263 272 269 257 232 226
198 197 194 191 193 187 185 182 180 185 187 193 195 200 203 205 200 201 196 212 202 202 199 209 218 232 246 223 238 250 245 268 281 280 273 274 266 263 265 268 254 251 239
197 194 193 190 190 188 185 181 179 183 188 192 195 197 202 205 205 209 204 222 213 204 197 216 221 229 236 240 239 232 258 253 258 263 266 274 280 283 278 278 276 274 260
196 194 192 190 188 186 185 182 181 184 187 190 194 198 202 210 208 208 212 214 223 212 200 213 216 217 225 234 234 237 235 242 252 262 270 270 274 276 274 273 279 278 269
190 192 188 187 186 185 185 185 184 186 188 190 192 196 203 211 209 204 212 210 209 205 192 207 215 216 214 222 235 244 258 264 262 264 260 265 269 266 268 269 269 275 281
185 189 186 186 186 186 182 183 185 187 187 188 194 195 198 203 208 214 212 214 211 210 207 208 213 218 215 213 229 232 236 252 261 273 284 279 279 279 270 264 264 266 272
184 183 179 178 179 178 177 180 183 185 187 191 194 197 197 201 206 209 210 212 212 206 212 216 218 221 226 224 230 243 236 246 257 265 268 273 286 283 281 275 265 260 261
179 173 168 166 170 172 174 177 181 184 187 188 191 196 198 200 206 208 206 206 209 211 210 214 219 224 226 230 232 245 250 255 259 265 271 274 270 274 279 285 279 271 261
169 166 162 165 168 170 173 174 180 184 185 185 190 193 197 197 203 207 206 205 207 212 215 217 220 225 226 228 234 240 251 259 264 268 270 273 274 275 279 275 279 278 271
170 169 166 167 167 170 172 177 182 182 183 184 190 193 196 197 201 204 208 206 208 213 218 219 223 226 225 229 236 242 248 257 264 268 269 270 270 270 273 270 273 280 282
174 171 172 168 170 170 173 178 182 182 182 185 191 194 195 197 201 203 209 208 210 214 215 219 222 226 223 226 233 245 248 256 262 263 264 262 264 290 283 287 287 281 278
183 176 173 172 174 174 176 175 179 180 181 188 195 193 195 198 202 206 208 208 209 211 213 217 217 221 225 176 223 258 256 255 257 262 262 252 232 227 244 280 287 285 276
186 180 179 179 177 177 176 176 174 174 179 186 194 195 198 201 205 210 207 208 210 209 211 213 210 214 216 177 203 244 258 258 260 264 269 272 266 242 262 251 242 258 258
190 185 181 181 179 175 173 173 170 172 176 183 192 194 198 202 203 205 208 212 214 211 209 208 208 215 213 177 204 236 239 250 254 257 261 270 283 289 293 276 272 272 270
189 186 186 179 171 172 169 169 172 175 181 187 195 196 196 197 198 200 202 207 210 209 206 207 210 219 220 185 200 236 244 246 251 253 253 258 270 318 304 272 272 278 282
184 179 178 172 164 163 167 173 176 180 187 193 198 198 197 200 202 199 200 203 206 208 213 216 220 223 228 190 195 226 245 248 256 252 243 210 254 286 273 265 274 278 288
174 169 169 168 161 163 167 179 183 188 188 190 193 192 192 196 194 192 196 197 204 207 216 221 223 224 223 192 190 218 243 252 260 268 267 250 148 235 254 265 272 286 287
170 167 163 156 154 164 172 182 187 181 178 184 187 184 184 194 184 185 190 195 202 205 211 218 229 223 214 203 194 210 234 260 256 269 281 298 179 239 247 251 268 276 270
167 167 162 155 156 167 176 183 178 174 178 186 189 185 184 186 186 187 191 198 206 217 217 220 229 231 220 197 194 212 226 244 253 269 295 271 231 236 231 206 226 245 259
171 171 168 167 166 172 181 179 168 172 177 188 187 180 181 183 181 191 197 202 207 218 224 231 236 239 224 213 206 228 227 229 244 264 235 214 217 228 230 217 224 246 266
183 183 180 176 174 175 178 175 164 167 174 183 189 194 193 187 186 191 200 210 203 218 240 245 248 245 238 215 260 245 237 244 247 260 251 246 239 246 248 244 239 246 251
191 190 188 183 177 178 179 177 170 172 178 186 194 202 198 188 190 186 180 95 148 137 180 297 276 247 102 132 186 245 250 234 227 243 244 247 253 256 262 265 258 247 252
Height
1529 1531 1534 1535 1537 1539 1540 1542 1544 1545 1547 1549 1550 1551 1552 1553 1553 1554 1553 1553 1554 1554 1554 1554 1554 1554 1555 1555 1555 1555 1555 1556 1556 1556 1556 1556 1556 1556 1556 1556 1557 1557 1557
1526 1529 1531 1533 1535 1537 1539 1540 1542 1544 1546 1547 1549 1550 1551 1552 1553 1553 1552 1553 1553 1553 1554 1553 1553 1553 1553 1553 1554 1554 1555 1555 1555 1556 1555 1555 1556 1555 1555 1555 1555 1555 1556
1521 1525 1528 1530 1533 1535 1536 1539 1540 1542 1544 1546 1548 1549 1550 1551 1552 1552 1552 1552 1552 1552 1552 1552 1552 1552 1553 1553 1553 1553 1553 1554 1554 1554 1555 1554 1553 1554 1554 1553 1554 1554 1554
1518 1521 1525 1528 1530 1532 1534 1536 1538 1540 1542 1544 1546 1547 1549 1550 1551 1551 1551 1551 1551 1551 1551 1551 1551 1551 1552 1552 1552 1552 1552 1553 1553 1553 1553 1553 1553 1553 1552 1553 1552 1552 1552
1513 1517 1521 1524 1527 1530 1532 1534 1536 1538 1540 1542 1544 1545 1547 1548 1549 1549 1549 1550 1550 1550 1550 1550 1550 1549 1550 1550 1550 1551 1551 1551 1552 1552 1552 1551 1551 1551 1551 1551 1551 1550 1550
1510 1514 1518 1521 1524 1527 1529 1531 1533 1535 1537 1539 1541 1543 1544 1546 1547 1547 1548 1548 1549 1549 1548 1549 1548 1549 1549 1549 1549 1549 1549 1549 1549 1550 1550 1550 1550 1549 1549 1549 1548 1548 1548
1506 1510 1513 1517 1520 1523 1525 1528 1530 1532 1535 1537 1539 1540 1542 1543 1544 1545 1546 1546 1547 1547 1547 1547 1547 1547 1547 1547 1547 1547 1547 1547 1547 1547 1548 1548 1548 1548 1547 1547 1546 1546 1546
1503 1506 1509 1513 1516 1519 1522 1524 1527 1529 1532 1534 1536 1538 1539 1541 1542 1543 1544 1544 1545 1545 1545 1545 1545 1545 1545 1545 1545 1546 1545 1545 1545 1545 1545 1545 1545 1545 1545 1545 1544 1543 1543
1500 1503 1506 1509 1512 1515 1518 1521 1524 1526 1529 1531 1533 1535 1536 1538 1540 1540 1541 1542 1543 1543 1543 1543 1543 1543 1543 1543 1543 1544 1543 1544 1544 1544 1543 1543 1543 1543 1542 1542 1542 1542 1540
1499 1501 1503 1506 1509 1512 1515 1518 1521 1523 1525 1528 1530 1532 1534 1535 1536 1538 1539 1539 1540 1541 1541 1541 1541 1541 1541 1541 1541 1541 1541 1541 1541 1541 1540 1540 1540 1540 1539 1539 1539 1539 1538
1497 1499 1501 1504 1507 1510 1512 1515 1518 1520 1522 1525 1527 1529 1530 1532 1534 1535 1535 1536 1537 1538 1538 1538 1539 1539 1539 1539 1539 1539 1539 1539 1539 1538 1538 1537 1537 1537 1537 1536 1536 1535 1535
1495 1497 1500 1502 1505 1507 1510 1512 1515 1517 1519 1522 1524 1526 1528 1529 1531 1532 1532 1533 1534 1535 1536 1536 1537 1537 1537 1537 1537 1537 1537 1536 1536 1536 1535 1535 1534 1533 1533 1533 1532 1532 1531
1495 1497 1499 1501 1503 1505 1508 1510 1512 1515 1517 1519 1521 1523 1524 1526 1527 1529 1530 1530 1531 1532 1533 1533 1534 1534 1534 1534 1534 1534 1534 1534 1534 1533 1532 1532 1531 1530 1530 1529 1529 1529 1529
1494 1496 1497 1499 1501 1503 1505 1508 1510 1513 1515 1517 1519 1520 1521 1523 1524 1525 1526 1527 1528 1529 1529 1530 1531 1531 1531 1531 1531 1531 1531 1531 1531 1530 1529 1529 1528 1528 1527 1527 1526 1526 1525
1492 1494 1496 1497 1499 1501 1503 1505 1508 1510 1512 1514 1516 1517 1519 1520 1521 1522 1523 1524 1524 1526 1526 1527 1527 1528 1529 1529 1528 1528 1528 1528 1527 1527 1526 1525 1525 1524 1524 1524 1524 1523 1522
1490 1492 1494 1495 1496 1498 1500 1502 1504 1507 1509 1510 1513 1515 1516 1517 1518 1519 1520 1521 1521 1522 1523 1523 1524 1525 1526 1525 1525 1525 1525 1525 1524 1524 1523 1522 1522 1521 1521 1520 1520 1519 1519
1489 1490 1492 1493 1494 1496 1498 1500 1502 1504 1506 1508 1510 1512 1513 1514 1515 1516 1517 1517 1518 1519 1519 1520 1520 1521 1521 1522 1522 1522 1522 1522 1521 1521 1520 1520 1520 1518 1517 1517 1516 1516 1515
1486 1488 1490 1492 1493 1494 1496 1498 1500 1502 1504 1505 1507 1509 1510 1511 1512 1513 1513 1514 1514 1515 1515 1516 1516 1517 1518 1518 1518 1518 1518 1518 1518 1517 1517 1516 1516 1515 1514 1513 1513 1512 1512
1484 1486 1487 1489 1491 1492 1494 1496 1498 1500 1502 1503 1505 1507 1508 1509 1509 1510 1510 1511 1511 1512 1512 1513 1513 1514 1514 1515 1515 1515 1515 1515 1514 1514 1513 1512 1512 1511 1510 1510 1509 1509 1508
1482 1484 1485 1487 1489 1490 1492 1494 1496 1498 1499 1501 1502 1504 1505 1506 1507 1507 1508 1509 1509 1509 1510 1511 1511 1511 1511 1511 1511 1511 1512 1512 1511 1511 1510 1509 1508 1507 1507 1507 1506 1505 1504
1480 1482 1483 1485 1487 1488 1490 1492 1494 1495 1497 1499 1500 1501 1502 1503 1504 1505 1505 1506 1506 1507 1507 1507 1508 1507 1507 1507 1508 1508 1508 1508 1508 1508 1507 1506 1505 1504 1503 1503 1503 1502 1501
1478 1480 1481 1483 1484 1486 1488 1490 1492 1494 1495 1496 1498 1499 1500 1501 1502 1502 1502 1503 1503 1504 1504 1504 1504 1504 1504 1504 1504 1504 1504 1504 1504 1504 1504 1503 1502 1501 1500 1500 1499 1499 1498
1476 1478 1479 1481 1482 1484 1486 1488 1490 1491 1493 1495 1496 1496 1497 1498 1499 1499 1499 1500 1500 1501 1501 1501 1501 1501 1501 1501 1500 1501 1501 1501 1501 1501 1500 1499 1499 1498 1498 1497 1496 1496 1496
1474 1476 1478 1479 1480 1482 1484 1486 1487 1489 1491 1492 1493 1494 1495 1496 1496 1496 1497 1498 1498 1498 1498 1498 1498 1498 1497 1497 1497 1497 1497 1497 1498 1498 1497 1496 1496 1495 1495 1495 1494 1493 1493
1473 1474 1475 1477 1479 1480 1482 1483 1484 1486 1488 1489 1490 1492 1493 1493 1493 1493 1494 1495 1495 1495 1495 1495 1495 1494 1494 1493 1493 1493 1493 1494 1494 1494 1494 1494 1494 1493 1493 1492 1491 1491 1490
1470 1472 1473 1475 1476 1478 1479 1480 1481 1483 1485 1487 1488 1490 1490 1491 1491 1491 1492 1491 1492 1492 1492 1492 1492 1492 1491 1490 1490 1491 1491 1491 1490 1491 1492 1491 1491 1490 1490 1489 1489 1488 1487